Regional Weather Roundup
Issued by NWS Northern Indiana

Home | Current Version | Previous Version | Text Only | Print | Product List | Glossary On
Versions: 1 2 3 4 5 6 7 8 9 10 11 12 13 14 15 16 17 18 19 20 21 22 23 24 25 26 27 28 29 30 31 32 33 34 35 36 37 38 39 40 41 42 43 44 45 46 47 48 49 50
000
ASUS43 KIWX 222210
RWRIWX

KIWX WEATHER ROUNDUP
NATIONAL WEATHER SERVICE NORTHERN INDIANA
600 PM EDT SUN APR 22 2018

NOTE: "FAIR" INDICATES FEW OR NO CLOUDS BELOW 12,000 FEET WITH NO
SIGNIFICANT WEATHER AND/OR OBSTRUCTIONS TO VISIBILITY.

* THESE STATIONS ARE NOT UNDER NWS QUALITY CONTROL. THEY ALSO MAY NOT
  REPORT WEATHER SUCH AS PRECIPITATION OR FOG.

INZ001>027-222300-
NORTHERN INDIANA

CITY           SKY/WX    TMP DP  RH WIND       PRES   REMARKS
GARY*          PTSUNNY   54  28  37 NE12G23   30.25F
VALPARAISO     FAIR      67  25  20 E14G24    30.23F
MICHIGAN CITY* FAIR      59  30  33 NE5       30.25S
LAPORTE*       FAIR      64  26  23 E14       30.25S
KNOX*          FAIR      64  27  24 E16       30.23S
SOUTH BEND     FAIR      63  22  20 SE14G21   30.26F
ELKHART*       FAIR      64  21  19 E12G20    30.25F
GOSHEN         FAIR      62  25  24 E17       30.26S
MONTICELLO*    FAIR      63  25  24 E9G18     30.20F
LOGANSPORT*    FAIR      63  30  29 E16G23    30.22F
ROCHESTER*     FAIR      66  25  20 E14G23    30.24S
WARSAW*        FAIR      63  27  25 E16       30.25S
AUBURN*        FAIR      59  23  25 E15       30.28S
FORT WAYNE     PTSUNNY   62  28  27 E18       30.27R
HUNTINGTON*    FAIR      63  26  24 E13G18    30.24F
PERU/GRISSOM   PTSUNNY   66  21  18 E17G25    30.22F
MARION*        FAIR      62  27  26 E16G22    30.22F

$$
INZ028>050-222300-
CENTRAL INDIANA

CITY           SKY/WX    TMP DP  RH WIND       PRES   REMARKS
LAFAYETTE      FAIR      64  31  28 E15       30.18F
KOKOMO*        FAIR      64  29  26 E17       30.21F
MUNCIE*        FAIR      65  28  24 E18       30.21F
INDIANAPOLIS   CLOUDY    65  23  20 E13       30.17S

$$
MIZ043>046-050>051-056>058-064>065-071>073-077>080-222300-
SOUTHWEST LOWER MICHIGAN

CITY           SKY/WX    TMP DP  RH WIND       PRES   REMARKS
BATTLE CREEK   FAIR      63  22  20 E10G22    30.28F
BENTON HARBOR  FAIR      65  23  20 NE14      30.25F
COLDWATER*     FAIR      61  24  24 E14       30.28F
HILLSDALE*     FAIR      59  21  23 E14G20    30.29F
HOLLAND        FAIR      64  27  24 E12       30.29F
GRAND RAPIDS   FAIR      63  27  25 E9        30.29F
KALAMAZOO      FAIR      65  21  18 E8G20     30.28F
STURGIS*       FAIR      63  25  23 E13G20    30.27F
THREE RIVERS*  FAIR      63  22  20 E10       30.28S

$$
OHZ001>008-015>018-024>025-222300-
NORTHWEST OHIO

CITY           SKY/WX    TMP DP  RH WIND       PRES   REMARKS
WAUSEON*       FAIR      59  18  20 E21       30.31R
DEFIANCE       FAIR      58  22  24 NE14      30.28
FINDLAY        FAIR      60  23  24 NE17      30.27S
TOLEDO EXPRESS FAIR      58  17  20 E21       30.31F
TOLEDO METCALF FAIR      56  22  26 E14G22    30.33F
LIMA           FAIR      62  33  33 NE13      30.25S

$$
AND FOR LAKE MICHIGAN COASTAL AND OPEN LAKE BUOY OBSERVATIONS

STATION/POSITION TEMP    WIND        PRES    VSBY  WAVE
                 AIR SEA DIR/SP/G                  HT/PER
                 (F)     (DEG/KT/KT) (MB)    (MI)  (FT/S)
CALUMET HARBOR    45     350/ 12/ 16 1023.9F
MICHIGAN CITY     43      40/ 11/ 12   N/A
BURNS HARBOR      45      80/ 11/ 13 1025.1S
SAINT JOSEPH      47      20/ 10/ 13 1024.7

$$
&&




USA.gov is the U.S. government's official web portal to all federal, state and local government web resources and services.